FW4559 Weather Reports


time (UTC)temp
F
wind
direction
speed
knots
gust
knots
rain 1hr
in
rain 24hr
in
rain mn
in
humidity
%
barometer
mb
20260504050506 42 120 0.0 0.9 0.00 0.00 0.00 64 1018.4
20260504050013 42 119 0.0 0.9 0.00 0.00 0.00 65 1018.4
20260504045505 42 119 0.0 0.9 0.00 0.00 0.00 65 1018.4
20260504045005 42 119 0.0 0.9 0.00 0.00 0.00 65 1018.5
20260504044504 42 143 0.0 0.9 0.00 0.00 0.00 65 1018.4
20260504044003 41 120 0.0 0.9 0.00 0.00 0.00 65 1018.4
20260504043503 41 120 0.0 0.9 0.00 0.00 0.00 66 1018.3
20260504043003 41 120 0.0 0.9 0.00 0.00 0.00 65 1018.4
20260504042503 41 181 0.0 0.0 0.00 0.00 0.00 65 1018.4
20260504042005 41 181 0.0 0.0 0.00 0.00 0.00 65 1018.4
20260504041501 41 181 0.0 0.9 0.00 0.00 0.00 65 1018.3
20260504041100 41 181 0.0 0.9 0.00 0.00 0.00 65 1018.4
20260504040558 41 183 0.0 0.9 0.00 0.00 0.00 66 1018.3
20260504040057 41 183 0.0 0.9 0.00 0.00 0.00 64 1018.2
20260504035557 41 160 0.0 0.9 0.00 0.00 0.00 64 1018.4
20260504035057 43 112 0.9 0.9 0.00 0.00 0.00 61 1018.3
20260504034557 44 234 0.0 0.9 0.00 0.00 0.00 59 1018.2
20260504034056 45 234 0.0 0.9 0.00 0.00 0.00 57 1018.3
20260504033557 45 234 0.0 2.6 0.00 0.00 0.00 56 1018.2
20260504033101 45 218 0.0 3.5 0.00 0.00 0.00 55 1018.2
20260504032556 46 233 0.9 3.5 0.00 0.00 0.00 55 1018.2
20260504032056 45 212 0.9 1.7 0.00 0.00 0.00 55 1018.1
20260504031557 45 174 0.0 2.6 0.00 0.00 0.00 55 1018.1
20260504031056 46 217 0.0 2.6 0.00 0.00 0.00 54 1018.1
20260504030558 46 221 0.9 2.6 0.00 0.00 0.00 53 1018.2
20260504030055 46 230 0.0 3.5 0.00 0.00 0.00 52 1018.1
20260504025555 46 226 0.9 3.5 0.00 0.00 0.00 52 1018.2
20260504025055 46 188 0.9 2.6 0.00 0.00 0.00 51 1018.3
20260504024555 46 169 0.9 2.6 0.00 0.00 0.00 51 1018.4
20260504024057 46 136 0.9 2.6 0.00 0.00 0.00 50 1018.4
20260504023554 47 189 0.9 2.6 0.00 0.00 0.00 49 1018.4
20260504023054 47 233 0.9 2.6 0.00 0.00 0.00 48 1018.5
20260504022554 47 233 0.0 2.6 0.00 0.00 0.00 48 1018.4
20260504022054 46 151 0.9 2.6 0.00 0.00 0.00 49 1018.4
20260504021555 46 175 0.9 1.7 0.00 0.00 0.00 48 1018.4
20260504021053 47 127 0.9 3.5 0.00 0.00 0.00 48 1018.3
20260504020553 47 163 0.9 3.5 0.00 0.00 0.00 48 1018.2
20260504020128 47 223 0.9 3.5 0.00 0.00 0.00 48 1018.1
20260504015553 46 153 0.9 3.5 0.00 0.00 0.00 48 1018.0
20260504015053 47 109 0.9 3.5 0.00 0.00 0.00 48 1018.0
20260504014602 47 103 0.9 3.5 0.00 0.00 0.00 48 1018.0
20260504014051 47 117 0.9 2.6 0.00 0.00 0.00 47 1017.9
20260504013552 47 131 0.0 2.6 0.00 0.00 0.00 46 1017.9
20260504013106 47 100 0.9 2.6 0.00 0.00 0.00 46 1017.9
20260504012552 48 227 0.0 0.9 0.00 0.00 0.00 45 1017.9
20260504012055 48 231 0.0 2.6 0.00 0.00 0.00 43 1017.8
20260504011552 49 230 0.9 2.6 0.00 0.00 0.00 43 1017.7
20260504011052 49 162 0.0 2.6 0.00 0.00 0.00 44 1017.8
20260504010550 49 133 0.9 1.7 0.00 0.00 0.00 44 1017.7
20260504010050 49 149 0.9 1.7 0.00 0.00 0.00 44 1017.5
20260504005550 49 150 0.0 1.7 0.00 0.00 0.00 44 1017.5
20260504005050 50 151 0.0 3.5 0.00 0.00 0.00 42 1017.6
20260504004619 50 164 0.9 3.5 0.00 0.00 0.00 42 1017.5
20260504004049 51 151 0.9 5.2 0.00 0.00 0.00 40 1017.4
20260504003549 52 248 0.9 4.3 0.00 0.00 0.00 37 1017.3
20260504003053 52 212 0.0 3.5 0.00 0.00 0.00 37 1017.3
20260504002549 52 252 1.7 5.2 0.00 0.00 0.00 37 1017.3
20260504002049 52 236 0.9 5.2 0.00 0.00 0.00 37 1017.2
20260504001618 53 288 1.7 6.1 0.00 0.00 0.00 36 1017.2
20260504001050 53 245 1.7 6.1 0.00 0.00 0.00 35 1017.1
20260504000549 54 235 1.7 5.2 0.00 0.00 0.00 35 1017.2
20260504000053 54 218 0.9 5.2 0.00 0.00 0.00 34 1017.1
20260503235548 55 334 0.9 5.2 0.00 0.00 0.00 33 1017.1
20260503235049 55 283 0.9 6.1 0.00 0.00 0.00 32 1017.0
20260503234548 55 295 2.6 6.1 0.00 0.00 0.00 32 1017.0
20260503234047 56 290 0.9 8.7 0.00 0.00 0.00 32 1017.0
20260503233546 56 261 0.9 7.8 0.00 0.00 0.00 32 1017.0
20260503233047 56 232 2.6 8.7 0.00 0.00 0.00 31 1017.0
20260503232547 56 258 1.7 8.7 0.00 0.00 0.00 31 1016.9
20260503232046 56 300 0.9 9.6 0.00 0.00 0.00 31 1016.9
20260503231546 56 278 0.9 9.6 0.00 0.00 0.00 30 1016.9
20260503231047 56 350 1.7 9.6 0.00 0.00 0.00 30 1016.8
20260503230546 56 1 1.7 9.6 0.00 0.00 0.00 29 1017.0
20260503230107 57 252 4.3 9.6 0.00 0.00 0.00 29 1016.9
20260503225545 57 314 4.3 9.6 0.00 0.00 0.00 28 1017.0
20260503225045 57 25 2.6 7.0 0.00 0.00 0.00 27 1017.0
20260503224545 57 303 3.5 11.3 0.00 0.00 0.00 28 1017.0
20260503224045 57 330 3.5 11.3 0.00 0.00 0.00 28 1017.1
20260503223544 58 328 4.3 8.7 0.00 0.00 0.00 27 1017.0
20260503223046 58 308 1.7 8.7 0.00 0.00 0.00 27 1017.2
20260503222544 58 226 2.6 8.7 0.00 0.00 0.00 26 1017.1
20260503222044 57 19 2.6 12.2 0.00 0.00 0.00 26 1017.1
20260503221544 58 121 6.1 12.2 0.00 0.00 0.00 26 1017.3
20260503221044 58 284 3.5 12.2 0.00 0.00 0.00 25 1017.3
20260503220544 58 356 3.5 12.2 0.00 0.00 0.00 25 1017.2
20260503220048 58 19 6.1 12.2 0.00 0.00 0.00 25 1017.2
20260503215543 59 304 2.6 9.6 0.00 0.00 0.00 25 1017.2
20260503215042 58 247 2.6 11.3 0.00 0.00 0.00 24 1017.2
20260503214544 58 1 6.1 12.2 0.00 0.00 0.00 23 1017.3
20260503214043 58 4 2.6 12.2 0.00 0.00 0.00 24 1017.3
20260503213544 58 148 4.3 10.4 0.00 0.00 0.00 24 1017.3
20260503213044 58 104 3.5 12.2 0.00 0.00 0.00 24 1017.4
20260503212543 58 233 3.5 12.2 0.00 0.00 0.00 24 1017.4
20260503212042 58 65 1.7 12.2 0.00 0.00 0.00 24 1017.5
20260503211542 58 307 3.5 13.9 0.00 0.00 0.00 24 1017.5
20260503211041 59 300 6.1 13.9 0.00 0.00 0.00 23 1017.5
20260503210541 59 54 3.5 10.4 0.00 0.00 0.00 22 1017.6
20260503210041 59 132 3.5 11.3 0.00 0.00 0.00 22 1017.7
20260503205542 59 260 3.5 11.3 0.00 0.00 0.00 23 1017.8
20260503205041 58 219 2.6 10.4 0.00 0.00 0.00 23 1017.8
20260503204540 58 335 1.7 8.7 0.00 0.00 0.00 24 1017.9
20260503204040 59 248 4.3 9.6 0.00 0.00 0.00 22 1017.9
20260503203539 58 257 5.2 9.6 0.00 0.00 0.00 20 1018.1
20260503203057 59 286 4.3 9.6 0.00 0.00 0.00 22 1018.0
20260503202539 60 316 1.7 9.6 0.00 0.00 0.00 25 1018.0
20260503202041 59 281 2.6 9.6 0.00 0.00 0.00 25 1018.0
20260503201539 60 258 1.7 11.3 0.00 0.00 0.00 24 1018.1
20260503201038 60 286 3.5 11.3 0.00 0.00 0.00 26 1018.1
20260503200542 60 243 2.6 13.0 0.00 0.00 0.00 28 1018.0
20260503200038 59 273 6.1 13.0 0.00 0.00 0.00 25 1018.0
20260503195537 60 298 2.6 8.7 0.00 0.00 0.00 27 1018.2
20260503195038 60 108 0.0 5.2 0.00 0.00 0.00 28 1018.1
20260503194543 60 129 1.7 5.2 0.00 0.00 0.00 26 1018.2
20260503194038 60 224 2.6 8.7 0.00 0.00 0.00 27 1018.2
20260503193538 60 237 2.6 8.7 0.00 0.00 0.00 27 1018.2
20260503193039 60 212 0.9 5.2 0.00 0.00 0.00 27 1018.3
20260503192535 59 267 0.9 5.2 0.00 0.00 0.00 28 1018.3
20260503192036 59 149 0.9 7.8 0.00 0.00 0.00 28 1018.5
20260503191540 58 276 2.6 7.8 0.00 0.00 0.00 27 1018.6
20260503191033 58 226 3.5 7.8 0.00 0.00 0.00 30 1018.7
20260503190534 57 215 1.7 6.1 0.00 0.00 0.00 27 1018.6
20260503190039 56 353 1.7 10.4 0.00 0.00 0.00 26 1018.7
20260503185531 56 125 1.7 10.4 0.00 0.00 0.00 29 1018.8
20260503185034 57 323 3.5 10.4 0.00 0.00 0.00 28 1018.7
20260503184533 57 326 4.3 9.6 0.00 0.00 0.00 27 1018.6
20260503184032 57 205 1.7 9.6 0.00 0.00 0.00 28 1018.7
20260503183535 56 203 0.9 6.1 0.00 0.00 0.00 29 1018.8
20260503183032 55 86 3.5 8.7 0.00 0.00 0.00 27 1019.0
20260503182531 56 338 5.2 8.7 0.00 0.00 0.00 26 1019.1
20260503182031 55 283 1.7 8.7 0.00 0.00 0.00 26 1019.1
20260503181531 55 305 3.5 8.7 0.00 0.00 0.00 25 1019.2
20260503181030 57 344 2.6 7.0 0.00 0.00 0.00 26 1019.1
20260503180531 57 335 1.7 6.1 0.00 0.00 0.00 24 1019.2
20260503180034 57 330 3.5 5.2 0.00 0.00 0.00 25 1019.2
20260503175529 56 203 0.0 5.2 0.00 0.00 0.00 27 1019.1
20260503175027 55 192 0.9 10.4 0.00 0.00 0.00 27 1019.3
20260503174526 54 224 3.5 10.4 0.00 0.00 0.00 27 1019.5
20260503174030 54 203 1.7 9.6 0.00 0.00 0.00 26 1019.5
20260503173526 53 319 0.9 7.8 0.00 0.00 0.00 29 1019.5
20260503173026 53 65 3.5 8.7 0.00 0.00 0.00 25 1019.6
20260503172525 54 353 3.5 7.8 0.00 0.00 0.00 25 1019.8
20260503172025 54 349 1.7 9.6 0.00 0.00 0.00 26 1019.7
20260503171523 53 224 3.5 9.6 0.00 0.00 0.00 27 1019.9
20260503171022 53 264 1.7 7.0 0.00 0.00 0.00 27 1020.0
20260503170523 52 239 2.6 11.3 0.00 0.00 0.00 29 1020.0
20260503151005 47 323 2.6 7.8 0.00 0.00 0.00 35 1020.7
20260503150503 46 300 2.6 10.4 0.00 0.00 0.00 36 1020.8
20260503131043 41 152 4.3 10.4 0.00 0.00 0.00 54 1020.1
20260503130541 40 289 2.6 8.7 0.00 0.00 0.00 56 1020.2
20260503110523 36 293 1.7 5.2 0.00 0.00 0.00 68 1018.7
20260503090510 36 13 2.6 7.0 0.00 0.00 0.00 76 1017.5
20260503081505 36 330 1.7 6.1 0.00 0.00 0.00 75 1017.2
20260503081100 36 318 1.7 6.1 0.00 0.00 0.00 75 1017.1
20260503080602 36 315 1.7 6.1 0.00 0.00 0.00 76 1017.0
20260503072554 36 326 0.0 1.7 0.00 0.00 0.00 78 1016.8
20260503072054 36 324 0.9 2.6 0.00 0.00 0.00 79 1016.8
20260503071553 35 353 0.9 2.6 0.00 0.00 0.00 79 1016.7
20260503071052 35 319 0.0 2.6 0.00 0.00 0.00 79 1016.6
20260503070555 35 338 0.0 1.7 0.00 0.00 0.00 80 1016.4